カタログに戻る

FENGYUN 1C DEB

運用中PO
NORAD 33655·DEBRIS·🇨🇳 China

打ち上げ May 10, 1999 から Taiyuan Satellite Launch Center

Loading…

次のパス (今後24時間)

TLE

最新Source: Space-Track

元期: Sep 14, 2026, 18:09 UTC

1 33655U 99025DEQ 26257.75639187  .00031884  00000-0  17684-2 0  9997
2 33655  98.8013   6.6519 0033589 171.0232 189.1603 15.13223254  7041

AllMySatでFENGYUN 1C DEBをリアルタイム追跡

Download on the App Store